RYR7828 LEZL-LEPA

Flight info

Callsign RYR7828
Flight time 1h 13m
Altitude 38000
Route BUDIT DCT ETURA DCT TOSTO DCT OLPOS DCT BEGOX DCT LASPO DCT ORVUS M871 GODOX
Aircraft A320/M-SDE3FGHIRWY/LB1

Departure

Time 2026-04-17 00:49
Airport Seville Airport (LEZL)

Arrival

Time 2026-04-17 02:02
Airport Palma de Mallorca Airport (LEPA)
Time Latitude Longitude Altitude Speed Heading
2026-04-17 00:32 37.42156 -5.90031 94 ft 0 kts 314°
2026-04-17 00:42 37.42143 -5.90013 95 ft 4 kts 310°
2026-04-17 00:42 37.42127 -5.89986 94 ft 4 kts 299°
2026-04-17 00:42 37.42117 -5.89956 94 ft 4 kts 269°
2026-04-17 00:43 37.42122 -5.89935 94 ft 1 kts 225°
2026-04-17 00:43 37.42125 -5.89932 94 ft 0 kts 225°
2026-04-17 00:45 37.42124 -5.89932 94 ft 0 kts 225°
2026-04-17 00:45 37.42118 -5.89940 94 ft 2 kts 225°
2026-04-17 00:45 37.42099 -5.89964 94 ft 6 kts 225°
2026-04-17 00:45 37.42057 -5.90028 96 ft 13 kts 248°
2026-04-17 00:46 37.42003 -5.90099 98 ft 13 kts 199°
2026-04-17 00:46 37.41980 -5.90203 95 ft 15 kts 269°
2026-04-17 00:46 37.41980 -5.90363 94 ft 21 kts 269°
2026-04-17 00:46 37.41979 -5.90560 93 ft 24 kts 270°
2026-04-17 00:47 37.41978 -5.90787 92 ft 27 kts 269°
2026-04-17 00:47 37.41969 -5.90948 93 ft 15 kts 246°
2026-04-17 00:47 37.41909 -5.91074 89 ft 18 kts 240°
2026-04-17 00:47 37.41837 -5.91190 92 ft 14 kts 196°
2026-04-17 00:48 37.41787 -5.91113 92 ft 12 kts 89°
2026-04-17 00:48 37.41788 -5.90919 93 ft 48 kts 89°
2026-04-17 00:48 37.41791 -5.90206 97 ft 112 kts 90°
2026-04-17 00:48 37.41795 -5.89003 107 ft 160 kts 89°
2026-04-17 00:49 37.41794 -5.87614 676 ft 155 kts 90°
2026-04-17 00:49 37.41791 -5.86259 1216 ft 156 kts 90°
2026-04-17 00:49 37.41797 -5.84895 1740 ft 156 kts 89°
2026-04-17 00:49 37.41804 -5.83522 2232 ft 158 kts 89°
2026-04-17 00:50 37.41852 -5.82075 2533 ft 176 kts 79°
2026-04-17 00:50 37.42101 -5.80466 2799 ft 199 kts 79°
2026-04-17 00:50 37.42381 -5.78651 3073 ft 224 kts 79°
2026-04-17 00:50 37.42697 -5.76630 3482 ft 248 kts 77°
2026-04-17 00:51 37.43351 -5.74539 4084 ft 264 kts 66°
2026-04-17 00:51 37.44115 -5.72419 4986 ft 268 kts 67°
2026-04-17 00:51 37.44873 -5.70264 5889 ft 271 kts 68°
2026-04-17 00:51 37.45636 -5.68069 6767 ft 276 kts 68°
2026-04-17 00:52 37.46412 -5.65841 7573 ft 281 kts 68°
2026-04-17 00:52 37.47203 -5.63569 8367 ft 286 kts 67°
2026-04-17 00:52 37.48009 -5.61255 9168 ft 291 kts 67°
2026-04-17 00:52 37.48828 -5.58895 9972 ft 296 kts 67°
2026-04-17 00:53 37.49662 -5.56499 10700 ft 301 kts 66°
2026-04-17 00:53 37.50532 -5.54004 11008 ft 323 kts 66°
2026-04-17 00:53 37.51469 -5.51323 11241 ft 344 kts 66°
2026-04-17 00:53 37.52448 -5.48531 11804 ft 352 kts 66°
2026-04-17 00:54 37.53441 -5.45694 12489 ft 356 kts 66°
2026-04-17 00:54 37.54442 -5.42822 13181 ft 360 kts 66°
2026-04-17 00:54 37.55451 -5.39918 13870 ft 364 kts 66°
2026-04-17 00:54 37.56471 -5.36978 14504 ft 367 kts 66°
2026-04-17 00:55 37.57495 -5.34018 15130 ft 370 kts 66°
2026-04-17 00:55 37.58525 -5.31037 15765 ft 372 kts 66°
2026-04-17 00:55 37.59561 -5.28035 16387 ft 375 kts 66°
2026-04-17 00:55 37.60419 -5.24914 16984 ft 379 kts 76°
2026-04-17 00:56 37.60807 -5.21616 17594 ft 383 kts 84°
2026-04-17 00:56 37.61036 -5.18218 18243 ft 385 kts 84°
2026-04-17 00:56 37.61272 -5.14834 18818 ft 388 kts 84°
2026-04-17 00:56 37.61515 -5.11430 19385 ft 391 kts 84°
2026-04-17 00:57 37.61761 -5.08001 19959 ft 394 kts 84°
2026-04-17 00:57 37.62006 -5.04545 20538 ft 397 kts 84°
2026-04-17 00:57 37.62245 -5.01062 21095 ft 400 kts 85°
2026-04-17 00:57 37.62486 -4.97544 21642 ft 404 kts 85°
2026-04-17 00:58 37.62728 -4.94005 22183 ft 407 kts 85°
2026-04-17 00:58 37.62972 -4.90441 22713 ft 409 kts 85°
2026-04-17 00:58 37.63219 -4.86851 23228 ft 412 kts 85°
2026-04-17 00:58 37.63466 -4.83230 23725 ft 415 kts 85°
2026-04-17 00:59 37.63712 -4.79591 24146 ft 418 kts 85°
2026-04-17 00:59 37.63957 -4.75920 24553 ft 421 kts 85°
2026-04-17 00:59 37.64199 -4.72234 24978 ft 423 kts 85°
2026-04-17 00:59 37.64443 -4.68525 25380 ft 426 kts 85°
2026-04-17 01:00 37.64689 -4.64794 25776 ft 428 kts 85°
2026-04-17 01:00 37.64936 -4.61037 26162 ft 430 kts 85°
2026-04-17 01:00 37.65181 -4.57321 26546 ft 433 kts 85°
2026-04-17 01:00 37.65430 -4.53528 26910 ft 435 kts 85°
2026-04-17 01:01 37.65679 -4.49704 27274 ft 438 kts 85°
2026-04-17 01:01 37.65926 -4.45866 27652 ft 440 kts 85°
2026-04-17 01:01 37.66175 -4.42007 28024 ft 443 kts 85°
2026-04-17 01:01 37.66425 -4.38119 28396 ft 445 kts 85°
2026-04-17 01:02 37.66673 -4.34218 28754 ft 447 kts 85°
2026-04-17 01:02 37.66919 -4.30294 29108 ft 450 kts 85°
2026-04-17 01:02 37.67166 -4.26343 29477 ft 452 kts 85°
2026-04-17 01:02 37.67416 -4.22384 29814 ft 455 kts 85°
2026-04-17 01:03 37.67666 -4.18392 30164 ft 457 kts 85°
2026-04-17 01:03 37.67915 -4.14395 30543 ft 457 kts 85°
2026-04-17 01:03 37.68162 -4.10406 30971 ft 455 kts 85°
2026-04-17 01:03 37.68407 -4.06422 31397 ft 454 kts 85°
2026-04-17 01:04 37.68647 -4.02452 31815 ft 453 kts 85°
2026-04-17 01:04 37.68886 -3.98491 32248 ft 452 kts 85°
2026-04-17 01:04 37.69123 -3.94532 32679 ft 451 kts 85°
2026-04-17 01:04 37.69358 -3.90594 33115 ft 450 kts 86°
2026-04-17 01:05 37.69590 -3.86654 33559 ft 449 kts 86°
2026-04-17 01:05 37.69744 -3.84051 33849 ft 448 kts 86°
2026-04-17 01:05 37.69978 -3.80133 34299 ft 447 kts 85°
2026-04-17 01:05 37.70211 -3.76223 34682 ft 446 kts 85°
2026-04-17 01:06 37.70440 -3.72326 35029 ft 445 kts 85°
2026-04-17 01:06 37.70664 -3.68430 35347 ft 445 kts 86°
2026-04-17 01:06 37.70885 -3.64532 35660 ft 445 kts 86°
2026-04-17 01:06 37.71106 -3.60639 35996 ft 444 kts 86°
2026-04-17 01:07 37.71329 -3.56749 36317 ft 444 kts 86°
2026-04-17 01:07 37.71551 -3.52857 36627 ft 443 kts 86°
2026-04-17 01:07 37.71771 -3.48976 36930 ft 443 kts 86°
2026-04-17 01:07 37.71990 -3.45098 37227 ft 443 kts 86°
2026-04-17 01:08 37.72204 -3.41215 37490 ft 443 kts 86°
2026-04-17 01:08 37.72416 -3.37332 37713 ft 444 kts 86°
2026-04-17 01:08 37.72628 -3.33443 37959 ft 444 kts 86°
2026-04-17 01:08 37.72841 -3.29552 38170 ft 445 kts 86°
2026-04-17 01:09 37.73269 -3.21695 38210 ft 451 kts 86°
2026-04-17 01:09 37.73695 -3.13774 38211 ft 452 kts 86°
2026-04-17 01:10 37.74110 -3.05844 38211 ft 452 kts 86°
2026-04-17 01:10 37.74531 -2.97917 38220 ft 452 kts 85°
2026-04-17 01:11 37.74951 -2.89977 38234 ft 453 kts 85°
2026-04-17 01:11 37.75936 -2.82159 38240 ft 451 kts 70°
2026-04-17 01:12 37.78788 -2.75240 38235 ft 447 kts 51°
2026-04-17 01:12 37.82794 -2.69243 38241 ft 450 kts 58°
2026-04-17 01:13 37.85664 -2.62089 38241 ft 461 kts 62°
2026-04-17 01:13 37.88470 -2.54723 38245 ft 467 kts 63°
2026-04-17 01:14 37.91275 -2.47307 38247 ft 467 kts 63°
2026-04-17 01:14 37.94130 -2.39913 38251 ft 467 kts 62°
2026-04-17 01:15 37.97090 -2.32584 38256 ft 467 kts 61°
2026-04-17 01:15 38.00050 -2.25242 38264 ft 468 kts 61°
2026-04-17 01:16 38.02957 -2.17917 38273 ft 468 kts 61°
2026-04-17 01:16 38.05862 -2.10532 38267 ft 468 kts 61°
2026-04-17 01:17 38.08771 -2.03144 38267 ft 468 kts 61°
2026-04-17 01:17 38.11687 -1.95755 38260 ft 468 kts 61°
2026-04-17 01:18 38.14596 -1.88366 38261 ft 468 kts 61°
2026-04-17 01:18 38.17488 -1.80964 38253 ft 467 kts 61°
2026-04-17 01:19 38.20379 -1.73575 38253 ft 467 kts 61°
2026-04-17 01:19 38.23256 -1.66171 38248 ft 466 kts 61°
2026-04-17 01:20 38.26131 -1.58785 38243 ft 466 kts 61°
2026-04-17 01:20 38.29002 -1.51402 38253 ft 465 kts 60°
2026-04-17 01:21 38.31861 -1.44011 38247 ft 465 kts 60°
2026-04-17 01:21 38.34685 -1.36675 38245 ft 464 kts 60°
2026-04-17 01:22 38.37528 -1.29299 38249 ft 464 kts 60°
2026-04-17 01:22 38.40360 -1.21915 38246 ft 464 kts 61°
2026-04-17 01:23 38.43192 -1.14531 38256 ft 463 kts 60°
2026-04-17 01:23 38.46020 -1.07146 38251 ft 463 kts 60°
2026-04-17 01:24 38.48832 -0.99763 38252 ft 462 kts 60°
2026-04-17 01:24 38.51645 -0.92392 38244 ft 462 kts 60°
2026-04-17 01:25 38.54446 -0.85014 38238 ft 462 kts 60°
2026-04-17 01:25 38.57241 -0.77629 38232 ft 462 kts 60°
2026-04-17 01:26 38.60032 -0.70248 38239 ft 461 kts 60°
2026-04-17 01:26 38.62811 -0.62867 38229 ft 460 kts 60°
2026-04-17 01:27 38.65563 -0.55541 38224 ft 460 kts 60°
2026-04-17 01:27 38.68329 -0.48169 38216 ft 460 kts 60°
2026-04-17 01:28 38.71088 -0.40784 38211 ft 459 kts 60°
2026-04-17 01:28 38.73838 -0.33412 38213 ft 459 kts 60°
2026-04-17 01:29 38.77959 -0.22335 38213 ft 459 kts 61°
2026-04-17 01:30 38.80698 -0.14940 38214 ft 459 kts 61°
2026-04-17 01:30 38.83441 -0.07536 38203 ft 459 kts 61°
2026-04-17 01:31 38.86176 -0.00133 38216 ft 459 kts 61°
2026-04-17 01:31 38.88901 0.07269 38207 ft 458 kts 61°
2026-04-17 01:32 38.91542 0.14489 38164 ft 441 kts 61°
2026-04-17 01:32 38.94126 0.21557 38174 ft 436 kts 61°
2026-04-17 01:33 38.96710 0.28591 38173 ft 435 kts 61°
2026-04-17 01:33 38.99285 0.35632 38176 ft 435 kts 61°
2026-04-17 01:34 39.01844 0.42677 37933 ft 434 kts 61°
2026-04-17 01:34 39.03117 0.46191 37664 ft 433 kts 61°
2026-04-17 01:34 39.04393 0.49707 37398 ft 433 kts 61°
2026-04-17 01:34 39.05665 0.53220 37127 ft 434 kts 62°
2026-04-17 01:35 39.06934 0.56736 36863 ft 434 kts 62°
2026-04-17 01:35 39.08101 0.60301 36640 ft 428 kts 66°
2026-04-17 01:35 39.09107 0.63855 36548 ft 417 kts 66°
2026-04-17 01:35 39.10056 0.67329 36447 ft 406 kts 67°
2026-04-17 01:36 39.10963 0.70727 36351 ft 398 kts 67°
2026-04-17 01:36 39.12786 0.77563 36188 ft 408 kts 68°
2026-04-17 01:37 39.14649 0.84505 36004 ft 412 kts 68°
2026-04-17 01:37 39.16517 0.91482 35817 ft 412 kts 68°
2026-04-17 01:38 39.18377 0.98470 35643 ft 412 kts 68°
2026-04-17 01:38 39.20243 1.05464 35460 ft 413 kts 68°
2026-04-17 01:39 39.22096 1.12427 35288 ft 413 kts 68°
2026-04-17 01:39 39.23956 1.19453 35117 ft 414 kts 68°
2026-04-17 01:40 39.25818 1.26496 34939 ft 415 kts 68°
2026-04-17 01:40 39.27676 1.33555 34763 ft 415 kts 69°
2026-04-17 01:41 39.29524 1.40622 34587 ft 416 kts 69°
2026-04-17 01:41 39.31382 1.47697 34411 ft 416 kts 69°
2026-04-17 01:42 39.33236 1.54789 34253 ft 417 kts 69°
2026-04-17 01:42 39.35081 1.61889 34045 ft 418 kts 69°
2026-04-17 01:42 39.36013 1.65468 33342 ft 423 kts 69°
2026-04-17 01:43 39.36946 1.69057 32897 ft 418 kts 69°
2026-04-17 01:43 39.37868 1.72608 32382 ft 416 kts 69°
2026-04-17 01:43 39.38768 1.76099 31870 ft 414 kts 69°
2026-04-17 01:43 39.39675 1.79622 31363 ft 412 kts 69°
2026-04-17 01:44 39.40580 1.83135 30842 ft 411 kts 69°
2026-04-17 01:44 39.41482 1.86636 30342 ft 410 kts 69°
2026-04-17 01:44 39.42380 1.90126 29765 ft 408 kts 69°
2026-04-17 01:44 39.43271 1.93600 29269 ft 405 kts 69°
2026-04-17 01:45 39.44154 1.97048 28759 ft 403 kts 69°
2026-04-17 01:45 39.45031 2.00473 28263 ft 400 kts 69°
2026-04-17 01:45 39.45904 2.03884 27768 ft 398 kts 69°
2026-04-17 01:45 39.46772 2.07277 27277 ft 397 kts 69°
2026-04-17 01:46 39.47635 2.10664 26793 ft 395 kts 69°
2026-04-17 01:46 39.48492 2.14041 26324 ft 394 kts 69°
2026-04-17 01:46 39.49347 2.17402 25863 ft 393 kts 69°
2026-04-17 01:46 39.50203 2.20765 25399 ft 393 kts 69°
2026-04-17 01:47 39.51058 2.24118 24952 ft 392 kts 69°
2026-04-17 01:47 39.51907 2.27464 24500 ft 391 kts 69°
2026-04-17 01:47 39.52753 2.30810 24070 ft 391 kts 69°
2026-04-17 01:47 39.53597 2.34157 23588 ft 390 kts 69°
2026-04-17 01:48 39.54441 2.37490 23089 ft 388 kts 67°
2026-04-17 01:48 39.55537 2.40595 22614 ft 381 kts 56°
2026-04-17 01:48 39.56804 2.43073 22167 ft 379 kts 52°
2026-04-17 01:48 39.58305 2.45882 21649 ft 378 kts 52°
2026-04-17 01:49 39.59797 2.48678 21119 ft 377 kts 52°
2026-04-17 01:49 39.61280 2.51472 20583 ft 376 kts 52°
2026-04-17 01:49 39.62760 2.54262 20037 ft 375 kts 52°
2026-04-17 01:49 39.64237 2.57053 19495 ft 374 kts 53°
2026-04-17 01:50 39.65572 2.59576 18975 ft 374 kts 53°
2026-04-17 01:50 39.67044 2.62365 18430 ft 374 kts 53°
2026-04-17 01:50 39.68509 2.65147 17809 ft 372 kts 53°
2026-04-17 01:50 39.69963 2.67912 17266 ft 369 kts 53°
2026-04-17 01:51 39.71406 2.70657 16701 ft 367 kts 53°
2026-04-17 01:51 39.72838 2.73381 16146 ft 361 kts 53°
2026-04-17 01:51 39.74237 2.76047 15606 ft 344 kts 53°
2026-04-17 01:51 39.75561 2.78567 15095 ft 330 kts 53°
2026-04-17 01:52 39.76830 2.80987 14609 ft 318 kts 53°
2026-04-17 01:52 39.78054 2.83320 14143 ft 307 kts 53°
2026-04-17 01:52 39.79251 2.85598 13654 ft 305 kts 53°
2026-04-17 01:52 39.80455 2.87888 13186 ft 308 kts 53°
2026-04-17 01:53 39.81666 2.90196 12702 ft 310 kts 53°
2026-04-17 01:53 39.82884 2.92513 12232 ft 310 kts 53°
2026-04-17 01:53 39.84100 2.94830 11764 ft 310 kts 54°
2026-04-17 01:53 39.85317 2.97157 11300 ft 312 kts 53°
2026-04-17 01:54 39.86537 2.99496 10840 ft 313 kts 54°
2026-04-17 01:54 39.87620 3.01956 10447 ft 314 kts 69°
2026-04-17 01:54 39.87898 3.03784 10366 ft 309 kts 86°
2026-04-17 01:54 39.87239 3.07284 10160 ft 302 kts 121°
2026-04-17 01:55 39.85810 3.09255 9830 ft 305 kts 146°
2026-04-17 01:55 39.83813 3.10216 9238 ft 312 kts 174°
2026-04-17 01:55 39.81640 3.10103 8705 ft 315 kts 186°
2026-04-17 01:55 39.79444 3.09817 8158 ft 319 kts 186°
2026-04-17 01:56 39.77950 3.09623 7775 ft 321 kts 186°
2026-04-17 01:56 39.75719 3.09337 7224 ft 323 kts 185°
2026-04-17 01:56 39.73512 3.09063 6667 ft 313 kts 186°
2026-04-17 01:56 39.71438 3.08371 5866 ft 308 kts 208°
2026-04-17 01:57 39.69860 3.06592 5331 ft 296 kts 235°
2026-04-17 01:57 39.68792 3.04393 4956 ft 281 kts 239°
2026-04-17 01:57 39.67812 3.02271 4585 ft 268 kts 239°
2026-04-17 01:57 39.66865 3.00242 4236 ft 257 kts 239°
2026-04-17 01:58 39.65957 2.98306 3899 ft 246 kts 239°
2026-04-17 01:58 39.65087 2.96451 3582 ft 235 kts 239°
2026-04-17 01:58 39.64253 2.94675 3278 ft 225 kts 239°
2026-04-17 01:58 39.63454 2.92973 2986 ft 216 kts 239°
2026-04-17 01:59 39.62691 2.91349 2707 ft 206 kts 239°
2026-04-17 01:59 39.61961 2.89796 2455 ft 199 kts 239°
2026-04-17 01:59 39.61251 2.88286 2198 ft 194 kts 238°
2026-04-17 01:59 39.60559 2.86814 1908 ft 186 kts 238°
2026-04-17 02:00 39.59911 2.85438 1685 ft 171 kts 238°
2026-04-17 02:00 39.59339 2.84224 1469 ft 147 kts 238°
2026-04-17 02:00 39.58823 2.83129 1276 ft 139 kts 238°
2026-04-17 02:00 39.58323 2.82070 1086 ft 137 kts 238°
2026-04-17 02:01 39.57823 2.81022 909 ft 137 kts 238°
2026-04-17 02:01 39.57329 2.79970 721 ft 137 kts 239°
2026-04-17 02:01 39.56840 2.78914 551 ft 136 kts 239°
2026-04-17 02:01 39.56342 2.77866 364 ft 136 kts 238°
2026-04-17 02:02 39.55851 2.76818 175 ft 136 kts 239°
2026-04-17 02:02 39.55361 2.75780 37 ft 133 kts 239°
2026-04-17 02:02 39.54944 2.74898 30 ft 92 kts 239°
2026-04-17 02:02 39.54698 2.74378 30 ft 43 kts 238°
2026-04-17 02:03 39.54610 2.74192 30 ft 19 kts 239°
2026-04-17 02:03 39.54559 2.74029 30 ft 21 kts 260°
2026-04-17 02:03 39.54551 2.73831 30 ft 23 kts 270°
2026-04-17 02:03 39.54553 2.73636 30 ft 22 kts 258°
2026-04-17 02:04 39.54474 2.73457 30 ft 25 kts 238°
2026-04-17 02:04 39.54395 2.73289 30 ft 15 kts 239°
2026-04-17 02:04 39.54420 2.73207 30 ft 14 kts 356°
2026-04-17 02:04 39.54485 2.73303 30 ft 16 kts 57°
2026-04-17 02:05 39.54531 2.73333 30 ft 7 kts 358°
2026-04-17 02:05 39.54553 2.73327 30 ft 2 kts 345°
2026-04-17 02:05 39.54557 2.73326 30 ft 0 kts 345°